Weather History for South Lake Tahoe, CA

Change the Weather History Date:

Tuesday, September 23, 2014

  Actual Average Record
Temperature  
Mean Temperature 58 °F 52 °F  
Max Temperature 78 °F 71 °F 83 °F (2009)
Min Temperature 37 °F 33 °F 23 °F (1972)
Degree Days  
Heating Degree Days 7 13  
Month to date heating degree days 105 232  
Since 1 July heating degree days 208 528  
Cooling Degree Days 0 0  
Month to date cooling degree days 3 0  
Year to date cooling degree days 99 30  
Growing Degree Days 7 (Base 50)    
Moisture  
Dew Point 33 °F    
Average Humidity 49    
Maximum Humidity 82    
Minimum Humidity 15    
Precipitation  
Precipitation 0.00 in - 0.55 in (1983)
Month to date precipitation 0.02  
Year to date precipitation 14.61  
Sea Level Pressure  
Sea Level Pressure 30.05 in    
Wind  
Wind Speed 5 mph (SSW)    
Max Wind Speed 18 mph    
Max Gust Speed 28 mph    
Visibility 10 miles    
Events      
T = Trace of Precipitation, MM = Missing Value Source: NWS Daily Summary

Daily Weather History Graph

Daily Weather History Graph

Search for Another Location

Airport:

Trip Planner

Search our weather history database for the weather conditions in past years. The results will help you decide how hot, cold, wet, or windy it might be!

Date:

Astronomy

Sep. 23, 2014 Rise Set
Actual Time 6:48 AM PDT 6:55 PM PDT
Civil Twilight 6:22 AM PDT 7:21 PM PDT
Nautical Twilight 5:50 AM PDT 7:52 PM PDT
Astronomical Twilight 5:19 AM PDT 8:24 PM PDT
Moon 6:17 AM PDT (9/23) 6:37 PM PDT (9/23)
Length of Visible Light 12h 59m
Length of Day
12h 06m
Waning Crescent, 0% of the Moon is Illuminated
Sep 23
Waning Crescent
Sep 23
New
Oct 1
First Quarter
Oct 8
Full
Oct 15
Last Quarter

Hourly Weather History & Observations

Time (PDT) Temp. Dew Point Humidity Pressure Visibility Wind Dir Wind Speed Gust Speed Precip Events Conditions
12:53 AM 46.9 °F 37.9 °F 71% 30.06 in 10.0 mi South 3.5 mph - N/A   Clear
1:53 AM 45.0 °F 37.0 °F 74% 30.05 in 10.0 mi Calm Calm - N/A   Clear
2:53 AM 43.0 °F 36.0 °F 76% 30.05 in 10.0 mi Calm Calm - N/A   Clear
3:53 AM 41.0 °F 35.1 °F 79% 30.05 in 10.0 mi Calm Calm - N/A   Clear
4:53 AM 39.9 °F 34.0 °F 79% 30.06 in 10.0 mi Calm Calm - N/A   Clear
5:53 AM 37.9 °F 32.0 °F 79% 30.08 in 10.0 mi Calm Calm - N/A   Clear
6:53 AM 37.9 °F 30.9 °F 76% 30.10 in 10.0 mi Calm Calm - N/A   Clear
7:53 AM 41.0 °F 34.0 °F 76% 30.11 in 10.0 mi Calm Calm - N/A   Clear
8:53 AM 53.1 °F 37.0 °F 55% 30.10 in 10.0 mi ENE 3.5 mph - N/A   Clear
9:53 AM 69.1 °F 30.0 °F 23% 30.06 in 10.0 mi South 8.1 mph - N/A   Clear
10:53 AM 72.0 °F 28.9 °F 20% 30.05 in 10.0 mi SSW 12.7 mph - N/A   Clear
11:53 AM 75.0 °F 24.1 °F 15% 30.04 in 10.0 mi South 13.8 mph 20.7 mph N/A   Clear
12:53 PM 75.9 °F 26.1 °F 16% 30.04 in 10.0 mi SSW 10.4 mph 20.7 mph N/A   Clear
1:53 PM 77.0 °F 27.0 °F 16% 30.03 in 10.0 mi South 13.8 mph 20.7 mph N/A   Clear
2:53 PM 75.9 °F 28.0 °F 17% 30.03 in 10.0 mi SSW 15.0 mph 25.3 mph N/A   Clear
3:53 PM 75.9 °F 28.9 °F 18% 30.01 in 10.0 mi Variable 4.6 mph - N/A   Clear
4:53 PM 75.0 °F 28.0 °F 18% 30.01 in 10.0 mi SW 10.4 mph 23.0 mph N/A   Clear
5:53 PM 72.0 °F 30.9 °F 22% 30.03 in 10.0 mi SSW 9.2 mph 17.3 mph N/A   Clear
6:53 PM 66.9 °F 37.0 °F 33% 30.05 in 10.0 mi South 6.9 mph - N/A   Clear
7:53 PM 64.0 °F 39.9 °F 41% 30.06 in 10.0 mi SSW 4.6 mph - N/A   Clear
8:53 PM 59.0 °F 39.9 °F 49% 30.05 in 10.0 mi SW 3.5 mph - N/A   Clear
9:53 PM 55.0 °F 39.0 °F 55% 30.02 in 10.0 mi Calm Calm - N/A   Clear
10:53 PM 53.1 °F 37.9 °F 57% 30.01 in 10.0 mi Calm Calm - N/A   Clear
11:53 PM 53.1 °F 33.1 °F 47% 30.00 in 10.0 mi Calm Calm - N/A   Clear